#�ϑ�����,���ϕ���,���ϕ���,�ő啗��,�ő啗����������,�ő�u�ԕ���,�ő�u�ԕ�����������
#(�N����),(m/s)   ,(16����),(m/s)   ,(16����)        ,(m/s)       ,(16����)            
2018/6/29 0:01,1.7,4,1.7,3,2.9,3
2018/6/29 0:02,1.7,4,1.7,3,3,3
2018/6/29 0:03,1.8,4,1.8,3,3.5,3
2018/6/29 0:04,1.8,4,1.8,4,2.7,4
2018/6/29 0:05,1.9,4,1.9,4,2.6,4
2018/6/29 0:06,2,4,2,3,3.7,3
2018/6/29 0:07,2.1,3,2.1,3,3.9,3
2018/6/29 0:08,2.1,4,2.1,3,4.2,5
2018/6/29 0:09,2,4,2.1,3,3.1,3
2018/6/29 0:10,2.1,4,2.1,3,3.1,3
2018/6/29 0:11,2.1,4,2.1,3,2.1,4
2018/6/29 0:12,2.1,4,2.1,3,3.5,4
2018/6/29 0:13,2.1,3,2.1,3,3.8,3
2018/6/29 0:14,2.2,3,2.2,3,3.3,4
2018/6/29 0:15,2.3,3,2.3,3,3.9,5
2018/6/29 0:16,2.3,3,2.3,3,3.5,3
2018/6/29 0:17,2.4,3,2.4,3,4.7,3
2018/6/29 0:18,2.4,3,2.4,3,3.6,2
2018/6/29 0:19,2.4,3,2.5,3,3.1,3
2018/6/29 0:20,2.4,3,2.4,3,2.7,3
2018/6/29 0:21,2.5,3,2.5,3,3.2,3
2018/6/29 0:22,2.5,3,2.5,3,4.1,4
2018/6/29 0:23,2.6,3,2.6,3,3.9,4
2018/6/29 0:24,2.5,3,2.6,3,2.9,3
2018/6/29 0:25,2.5,3,2.5,3,3.2,2
2018/6/29 0:26,2.5,3,2.5,3,3.3,3
2018/6/29 0:27,2.3,3,2.5,3,2.6,3
2018/6/29 0:28,2.3,3,2.3,3,4.3,4
2018/6/29 0:29,2.3,3,2.4,3,3.5,4
2018/6/29 0:30,2.4,3,2.4,3,3.2,3
2018/6/29 0:31,2.4,3,2.4,3,3,3
2018/6/29 0:32,2.3,3,2.4,3,3.1,3
2018/6/29 0:33,2.3,3,2.3,3,3.6,2
2018/6/29 0:34,2.4,3,2.4,3,3.5,4
2018/6/29 0:35,2.3,3,2.4,3,3,2
2018/6/29 0:36,2.4,3,2.4,3,3.7,3
2018/6/29 0:37,2.5,3,2.5,3,4.2,3
2018/6/29 0:38,2.5,3,2.5,3,4.1,3
2018/6/29 0:39,2.5,3,2.5,3,2.6,2
2018/6/29 0:40,2.5,3,2.5,3,4.2,3
2018/6/29 0:41,2.4,3,2.5,3,3.6,5
2018/6/29 0:42,2.5,3,2.5,3,3.5,3
2018/6/29 0:43,2.5,3,2.5,3,4.2,3
2018/6/29 0:44,2.5,3,2.5,3,3.9,4
2018/6/29 0:45,2.5,3,2.5,3,2.7,1
2018/6/29 0:46,2.5,3,2.5,3,4.7,3
2018/6/29 0:47,2.4,3,2.5,3,3.5,3
2018/6/29 0:48,2.4,3,2.4,3,3.6,3
2018/6/29 0:49,2.5,3,2.5,3,3.5,2
2018/6/29 0:50,2.5,3,2.5,3,4.5,3
2018/6/29 0:51,2.5,3,2.5,3,3.6,2
2018/6/29 0:52,2.6,3,2.6,3,3.8,3
2018/6/29 0:53,2.7,3,2.7,3,4.9,3
2018/6/29 0:54,2.7,3,2.7,3,4.1,4
2018/6/29 0:55,2.7,3,2.7,3,2.9,4
2018/6/29 0:56,2.7,3,2.7,3,3.2,3
2018/6/29 0:57,2.7,3,2.7,3,3.2,2
2018/6/29 0:58,2.6,3,2.6,3,3.6,3
2018/6/29 0:59,2.6,3,2.6,3,3.1,3
2018/6/29 1:00,2.6,3,2.6,3,4.1,3
2018/6/29 1:01,2.5,3,2.6,3,3.2,3
2018/6/29 1:02,2.4,3,2.5,3,2.7,3
2018/6/29 1:03,2.3,3,2.4,3,2.9,3
2018/6/29 1:04,2.2,3,2.3,3,2.5,2
2018/6/29 1:05,2.1,3,2.2,3,2.9,3
2018/6/29 1:06,2.1,3,2.2,3,2.9,3
2018/6/29 1:07,2.1,3,2.1,3,3.2,2
2018/6/29 1:08,2.2,3,2.2,3,3.6,2
2018/6/29 1:09,2.2,3,2.2,3,4.2,3
2018/6/29 1:10,2.2,3,2.3,3,3.3,3
2018/6/29 1:11,2.2,3,2.2,3,3.7,3
2018/6/29 1:12,2.3,3,2.3,3,3.7,3
2018/6/29 1:13,2.2,3,2.3,3,3.2,3
2018/6/29 1:14,2.2,3,2.2,3,2,4
2018/6/29 1:15,2.2,3,2.3,3,3.3,3
2018/6/29 1:16,2.2,3,2.2,3,2.7,3
2018/6/29 1:17,2.2,3,2.2,3,3.2,4
2018/6/29 1:18,2.2,3,2.2,3,3.7,3
2018/6/29 1:19,2.1,3,2.2,3,3.3,4
2018/6/29 1:20,2.1,3,2.1,3,4.9,4
2018/6/29 1:21,2.2,3,2.2,3,4.8,4
2018/6/29 1:22,2.2,3,2.2,3,3.1,3
2018/6/29 1:23,2.2,3,2.2,3,3.2,3
2018/6/29 1:24,2.3,3,2.3,3,2.4,3
2018/6/29 1:25,2.3,3,2.3,3,3,3
2018/6/29 1:26,2.3,3,2.3,3,2.7,3
2018/6/29 1:27,2.3,3,2.3,3,2.6,3
2018/6/29 1:28,2.3,3,2.3,3,3,3
2018/6/29 1:29,2.3,3,2.3,3,3.3,3
2018/6/29 1:30,2.3,3,2.3,3,3.5,3
2018/6/29 1:31,2.1,3,2.2,3,2.7,2
2018/6/29 1:32,2.2,3,2.2,3,4.4,3
2018/6/29 1:33,2.3,3,2.3,3,4.3,4
2018/6/29 1:34,2.4,3,2.4,3,3.5,3
2018/6/29 1:35,2.4,3,2.4,3,4.5,4
2018/6/29 1:36,2.5,3,2.5,3,5.4,3
2018/6/29 1:37,2.7,3,2.7,3,5.2,4
2018/6/29 1:38,2.8,3,2.8,3,4.5,3
2018/6/29 1:39,2.8,3,2.9,3,3.7,3
2018/6/29 1:40,2.8,3,2.8,3,3.5,3
2018/6/29 1:41,2.8,3,2.8,3,3.2,4
2018/6/29 1:42,2.7,3,2.8,3,3,3
2018/6/29 1:43,2.5,3,2.7,3,2.1,3
2018/6/29 1:44,2.4,3,2.5,3,2.2,3
2018/6/29 1:45,2.3,3,2.4,3,2,3
2018/6/29 1:46,2.1,3,2.3,3,1.9,4
2018/6/29 1:47,1.9,3,2.1,3,2.9,4
2018/6/29 1:48,1.7,3,1.9,3,3,4
2018/6/29 1:49,1.7,3,1.7,3,2.5,3
2018/6/29 1:50,1.8,3,1.8,3,3.6,3
2018/6/29 1:51,1.8,3,1.8,3,2.7,2
2018/6/29 1:52,1.6,3,1.7,3,1.4,3
2018/6/29 1:53,1.6,3,1.6,3,3.3,3
2018/6/29 1:54,1.7,3,1.7,3,3.1,3
2018/6/29 1:55,1.6,3,1.6,3,1.9,3
2018/6/29 1:56,1.8,3,1.8,3,3.7,3
2018/6/29 1:57,1.8,3,1.8,3,3.2,4
2018/6/29 1:58,1.9,3,1.9,3,4.1,4
2018/6/29 1:59,1.9,3,1.9,3,3.2,5
2018/6/29 2:00,1.8,3,1.9,3,2.6,2
2018/6/29 2:01,1.9,3,1.9,3,5.2,3
2018/6/29 2:02,2.2,3,2.2,3,4.4,3
2018/6/29 2:03,2.4,3,2.4,3,4.3,3
2018/6/29 2:04,2.5,3,2.5,3,3.7,3
2018/6/29 2:05,2.5,4,2.5,3,2.5,5
2018/6/29 2:06,2.5,4,2.5,3,2.7,3
2018/6/29 2:07,2.4,4,2.5,3,2.4,3
2018/6/29 2:08,2.3,4,2.4,3,2.5,3
2018/6/29 2:09,2.3,3,2.3,3,3,3
2018/6/29 2:10,2.3,3,2.3,3,2.6,4
2018/6/29 2:11,2.2,4,2.3,3,2.7,4
2018/6/29 2:12,2,4,2.2,3,2.9,4
2018/6/29 2:13,2,4,2.1,3,4.3,4
2018/6/29 2:14,2,4,2,3,3.2,3
2018/6/29 2:15,2,3,2,4,2.4,3
2018/6/29 2:16,2.1,3,2.1,4,3.6,4
2018/6/29 2:17,2.2,3,2.2,4,3.9,3
2018/6/29 2:18,2.3,3,2.3,4,3,3
2018/6/29 2:19,2.2,4,2.3,3,2.2,4
2018/6/29 2:20,2.2,4,2.2,3,2.2,3
2018/6/29 2:21,2.2,4,2.2,3,3,4
2018/6/29 2:22,2.2,4,2.2,3,2.5,3
2018/6/29 2:23,2,4,2.2,3,2.2,2
2018/6/29 2:24,1.9,4,2,3,1.9,2
2018/6/29 2:25,2,4,2,3,3.1,3
2018/6/29 2:26,1.9,4,2,3,2.2,3
2018/6/29 2:27,1.7,4,1.9,3,2,4
2018/6/29 2:28,1.7,4,1.7,3,2.4,5
2018/6/29 2:29,1.7,4,1.8,4,3,3
2018/6/29 2:30,1.9,3,1.9,4,3.9,4
2018/6/29 2:31,1.9,3,1.9,4,4.5,2
2018/6/29 2:32,2.1,4,2.1,4,4.9,5
2018/6/29 2:33,2.2,4,2.2,4,4.2,4
2018/6/29 2:34,2.4,4,2.4,4,3.9,5
2018/6/29 2:35,2.3,4,2.4,4,2,4
2018/6/29 2:36,2.3,4,2.3,4,2.5,4
2018/6/29 2:37,2.3,4,2.3,4,1.9,3
2018/6/29 2:38,2.4,4,2.4,4,3.2,4
2018/6/29 2:39,2.4,4,2.4,4,3,4
2018/6/29 2:40,2.3,4,2.4,4,2.1,4
2018/6/29 2:41,2.1,4,2.3,4,1.8,2
2018/6/29 2:42,1.9,4,2.1,4,2.5,4
2018/6/29 2:43,1.8,4,1.9,4,2.5,3
2018/6/29 2:44,1.7,4,1.8,4,2.2,3
2018/6/29 2:45,1.7,3,1.7,4,3.1,3
2018/6/29 2:46,1.8,3,1.8,4,3.3,2
2018/6/29 2:47,2,3,2,4,4.1,4
2018/6/29 2:48,2.1,4,2.1,4,4.5,4
2018/6/29 2:49,2.1,4,2.1,4,4.2,4
2018/6/29 2:50,2.2,4,2.2,4,2.7,5
2018/6/29 2:51,2.3,4,2.3,4,3.7,5
2018/6/29 2:52,2.3,4,2.3,4,3.1,5
2018/6/29 2:53,2.3,4,2.3,4,2.4,3
2018/6/29 2:54,2.4,4,2.4,4,3.5,4
2018/6/29 2:55,2.4,4,2.4,4,3.6,4
2018/6/29 2:56,2.3,5,2.4,4,3.6,4
2018/6/29 2:57,2.3,5,2.4,4,4.1,5
2018/6/29 2:58,2.3,5,2.3,4,3.2,3
2018/6/29 2:59,2.3,4,2.3,4,3.3,3
2018/6/29 3:00,2.2,4,2.3,4,2.4,2
2018/6/29 3:01,2.2,4,2.2,4,4.7,3
2018/6/29 3:02,2.3,4,2.3,4,4.2,3
2018/6/29 3:03,2.4,4,2.4,4,3.3,3
2018/6/29 3:04,2.4,4,2.4,4,3.5,3
2018/6/29 3:05,2.3,4,2.4,4,2.5,3
2018/6/29 3:06,2.3,3,2.3,5,2.4,3
2018/6/29 3:07,2.2,3,2.3,4,3.2,3
2018/6/29 3:08,2.3,3,2.3,4,4.4,4
2018/6/29 3:09,2.4,3,2.4,4,3.6,4
2018/6/29 3:10,2.4,3,2.4,4,3,4
2018/6/29 3:11,2.3,3,2.4,4,2.9,4
2018/6/29 3:12,2.2,3,2.3,4,2.2,3
2018/6/29 3:13,2.2,3,2.2,4,3.2,3
2018/6/29 3:14,2.2,3,2.2,4,2.9,4
2018/6/29 3:15,2.3,3,2.3,3,3.8,3
2018/6/29 3:16,2.3,3,2.4,3,3.2,4
2018/6/29 3:17,2.3,3,2.3,3,2,4
2018/6/29 3:18,2,3,2.2,3,2,4
2018/6/29 3:19,1.9,3,2,3,3.1,2
2018/6/29 3:20,2,3,2,3,3.1,4
2018/6/29 3:21,2,3,2,3,3.6,3
2018/6/29 3:22,2.1,3,2.1,3,3.9,3
2018/6/29 3:23,2.1,3,2.1,3,3.3,3
2018/6/29 3:24,2.1,3,2.2,3,3.2,3
2018/6/29 3:25,2.2,3,2.2,3,4.2,4
2018/6/29 3:26,2.3,3,2.3,3,4.7,4
2018/6/29 3:27,2.4,3,2.4,3,3.2,4
2018/6/29 3:28,2.4,3,2.4,3,1.8,3
2018/6/29 3:29,2.4,3,2.4,3,2.5,4
2018/6/29 3:30,2.4,3,2.4,3,3.5,3
2018/6/29 3:31,2.4,3,2.4,3,3.1,3
2018/6/29 3:32,2.3,3,2.4,3,2.9,4
2018/6/29 3:33,2.4,3,2.4,3,4.7,5
2018/6/29 3:34,2.4,3,2.4,3,3.7,3
2018/6/29 3:35,2.3,3,2.4,3,2.9,2
2018/6/29 3:36,2.1,3,2.3,3,2.9,4
2018/6/29 3:37,2.2,3,2.2,3,3.1,4
2018/6/29 3:38,2.3,3,2.3,3,3,3
2018/6/29 3:39,2.4,3,2.4,3,3.2,4
2018/6/29 3:40,2.3,3,2.4,3,4.2,3
2018/6/29 3:41,2.4,3,2.4,3,4.1,2
2018/6/29 3:42,2.4,3,2.4,3,3.2,3
2018/6/29 3:43,2.3,3,2.4,3,3.1,2
2018/6/29 3:44,2.3,3,2.3,3,3.7,4
2018/6/29 3:45,2.3,3,2.3,3,3.2,3
2018/6/29 3:46,2.3,3,2.3,3,3.6,3
2018/6/29 3:47,2.3,3,2.3,3,3.6,3
2018/6/29 3:48,2.3,3,2.3,3,2.9,3
2018/6/29 3:49,2.3,3,2.3,3,4.1,2
2018/6/29 3:50,2.4,3,2.4,3,3.1,3
2018/6/29 3:51,2.4,3,2.4,3,3.6,3
2018/6/29 3:52,2.4,3,2.4,3,3.2,3
2018/6/29 3:53,2.4,3,2.4,3,3.3,3
2018/6/29 3:54,2.3,3,2.4,3,3.1,3
2018/6/29 3:55,2.3,3,2.3,3,3.2,2
2018/6/29 3:56,2.3,3,2.3,3,3.3,2
2018/6/29 3:57,2.3,3,2.4,3,4.3,2
2018/6/29 3:58,2.3,3,2.3,3,3.6,3
2018/6/29 3:59,2.3,2,2.3,3,3,1
2018/6/29 4:00,2.1,2,2.2,3,3.3,2
2018/6/29 4:01,2.1,2,2.1,3,3.5,2
2018/6/29 4:02,2.1,2,2.1,3,3,4
2018/6/29 4:03,2,2,2.1,3,2.7,3
2018/6/29 4:04,2,2,2,3,3.8,2
2018/6/29 4:05,2,2,2,3,3.5,3
2018/6/29 4:06,2.1,2,2.1,3,3.6,3
2018/6/29 4:07,2,2,2.1,3,3.9,3
2018/6/29 4:08,2,3,2,3,4.2,3
2018/6/29 4:09,2.1,3,2.1,2,3.9,3
2018/6/29 4:10,2.1,3,2.1,2,3.6,4
2018/6/29 4:11,2.2,3,2.2,3,3.8,3
2018/6/29 4:12,2.3,3,2.3,3,4.4,3
2018/6/29 4:13,2.3,3,2.3,3,3.7,3
2018/6/29 4:14,2.4,3,2.4,3,3.6,3
2018/6/29 4:15,2.5,3,2.5,3,3.7,4
2018/6/29 4:16,2.6,3,2.6,3,4.2,2
2018/6/29 4:17,2.6,3,2.6,3,3.3,3
2018/6/29 4:18,2.6,3,2.6,3,3.5,4
2018/6/29 4:19,2.7,3,2.7,3,4.8,3
2018/6/29 4:20,2.8,3,2.8,3,3.7,3
2018/6/29 4:21,2.7,3,2.8,3,3,3
2018/6/29 4:22,2.6,3,2.6,3,3.2,6
2018/6/29 4:23,2.5,3,2.6,3,2.4,3
2018/6/29 4:24,2.4,3,2.5,3,3,3
2018/6/29 4:25,2.4,3,2.5,3,4.4,3
2018/6/29 4:26,2.5,3,2.5,3,4.7,3
2018/6/29 4:27,2.5,3,2.5,3,4.1,3
2018/6/29 4:28,2.5,3,2.5,3,4.1,3
2018/6/29 4:29,2.4,3,2.5,3,3,4
2018/6/29 4:30,2.4,3,2.4,3,4.7,4
2018/6/29 4:31,2.6,3,2.6,3,3.9,4
2018/6/29 4:32,2.6,3,2.6,3,3.5,3
2018/6/29 4:33,2.7,3,2.7,3,3,4
2018/6/29 4:34,2.7,3,2.7,3,3.6,3
2018/6/29 4:35,2.6,3,2.7,3,3.3,3
2018/6/29 4:36,2.4,3,2.6,3,3.5,2
2018/6/29 4:37,2.4,3,2.4,3,4.2,3
2018/6/29 4:38,2.5,3,2.5,3,4.7,4
2018/6/29 4:39,2.6,3,2.6,3,3.8,3
2018/6/29 4:40,2.4,3,2.6,3,3.1,3
2018/6/29 4:41,2.4,3,2.4,3,3.6,3
2018/6/29 4:42,2.4,3,2.4,3,4.2,3
2018/6/29 4:43,2.3,3,2.4,3,3.2,4
2018/6/29 4:44,2.2,3,2.3,3,2.4,3
2018/6/29 4:45,2.2,3,2.2,3,2.7,2
2018/6/29 4:46,2.3,3,2.3,3,3.5,3
2018/6/29 4:47,2.1,3,2.2,3,2.9,4
2018/6/29 4:48,2.1,3,2.1,3,3.5,4
2018/6/29 4:49,2,3,2.1,3,3.1,4
2018/6/29 4:50,2.1,3,2.1,3,3.2,3
2018/6/29 4:51,1.9,3,2.1,3,3,3
2018/6/29 4:52,1.8,3,1.9,3,3,3
2018/6/29 4:53,1.9,2,1.9,3,3.1,2
2018/6/29 4:54,1.9,2,1.9,3,2.7,3
2018/6/29 4:55,1.8,3,1.9,3,2.1,4
2018/6/29 4:56,1.8,2,1.8,3,3.9,3
2018/6/29 4:57,1.9,3,1.9,3,4.3,4
2018/6/29 4:58,1.8,3,1.9,3,2.6,5
2018/6/29 4:59,1.8,3,1.8,3,3.1,3
2018/6/29 5:00,1.9,3,1.9,3,3.3,3
2018/6/29 5:01,2,3,2,3,3,2
2018/6/29 5:02,2.1,3,2.1,3,3.2,2
2018/6/29 5:03,2,3,2.1,3,3,3
2018/6/29 5:04,2.1,3,2.1,3,4.2,4
2018/6/29 5:05,2.3,3,2.3,3,3.8,3
2018/6/29 5:06,2.5,3,2.5,3,4.3,4
2018/6/29 5:07,2.4,3,2.5,3,2.9,3
2018/6/29 5:08,2.3,3,2.3,3,1.8,5
2018/6/29 5:09,2.2,3,2.3,3,2.5,3
2018/6/29 5:10,2.2,3,2.2,3,2.4,3
2018/6/29 5:11,2.2,3,2.2,3,2.6,3
2018/6/29 5:12,2.2,3,2.2,3,5,3
2018/6/29 5:13,2.3,3,2.4,3,5.6,3
2018/6/29 5:14,2.4,3,2.4,3,4.5,3
2018/6/29 5:15,2.3,3,2.3,3,3.6,5
2018/6/29 5:16,2.3,3,2.3,3,3.3,3
2018/6/29 5:17,2.3,3,2.3,3,3.6,3
2018/6/29 5:18,2.3,3,2.3,3,2.4,5
2018/6/29 5:19,2.3,3,2.3,3,2.9,5
2018/6/29 5:20,2.3,3,2.3,3,2.4,2
2018/6/29 5:21,2.3,4,2.3,3,3.7,5
2018/6/29 5:22,2.3,4,2.4,3,3.3,5
2018/6/29 5:23,2.1,4,2.2,3,3.5,4
2018/6/29 5:24,2,4,2.1,4,3.1,4
2018/6/29 5:25,2,4,2.1,4,4.2,4
2018/6/29 5:26,2,4,2.1,4,3.7,3
2018/6/29 5:27,2,4,2,4,2.1,2
2018/6/29 5:28,2,4,2,4,2.4,2
2018/6/29 5:29,1.9,4,2,4,2.2,4
2018/6/29 5:30,2,4,2,4,2.2,4
2018/6/29 5:31,2.1,4,2.1,4,4.3,3
2018/6/29 5:32,2.1,3,2.1,4,4.8,3
2018/6/29 5:33,2.1,3,2.1,4,2.7,4
2018/6/29 5:34,2.1,3,2.1,4,2.6,4
2018/6/29 5:35,1.9,4,2,4,2,4
2018/6/29 5:36,1.7,3,1.9,4,1.5,3
2018/6/29 5:37,1.8,3,1.8,4,2,4
2018/6/29 5:38,1.8,3,1.8,4,3.2,4
2018/6/29 5:39,1.8,3,1.8,4,2.6,2
2018/6/29 5:40,1.9,3,1.9,4,4.3,3
2018/6/29 5:41,1.8,3,1.9,4,3.9,2
2018/6/29 5:42,1.8,3,1.8,3,2.7,3
2018/6/29 5:43,1.9,3,1.9,3,4.3,4
2018/6/29 5:44,2,3,2,3,4.7,4
2018/6/29 5:45,2.1,2,2.1,2,4.2,4
2018/6/29 5:46,2.2,3,2.2,2,3.5,3
2018/6/29 5:47,2.3,2,2.3,3,2.4,2
2018/6/29 5:48,2.2,2,2.3,3,2.5,3
2018/6/29 5:49,2.2,2,2.2,3,3.1,4
2018/6/29 5:50,2.2,2,2.3,3,4.1,2
2018/6/29 5:51,2.3,3,2.3,3,3.6,3
2018/6/29 5:52,2.3,3,2.3,3,3.2,3
2018/6/29 5:53,2.2,3,2.3,3,2.6,3
2018/6/29 5:54,2.1,3,2.1,3,3.1,2
2018/6/29 5:55,1.9,3,2,3,2.5,3
2018/6/29 5:56,1.9,3,1.9,3,2.7,3
2018/6/29 5:57,1.9,3,1.9,2,2.7,3
2018/6/29 5:58,1.9,3,1.9,2,2.6,3
2018/6/29 5:59,2,3,2,2,2.5,2
2018/6/29 6:00,1.9,3,2,2,3.5,2
2018/6/29 6:01,1.9,3,1.9,3,3.1,3
2018/6/29 6:02,1.8,2,1.9,3,2.6,4
2018/6/29 6:03,1.8,2,1.8,3,2.9,4
2018/6/29 6:04,1.9,3,1.9,3,3.7,5
2018/6/29 6:05,2,3,2,3,3.3,3
2018/6/29 6:06,2.1,3,2.1,3,3.7,4
2018/6/29 6:07,2.1,3,2.1,3,2.9,4
2018/6/29 6:08,2,3,2.1,3,2.2,3
2018/6/29 6:09,2,3,2,3,1.9,3
2018/6/29 6:10,1.9,3,2,3,2.5,2
2018/6/29 6:11,1.8,3,1.9,3,2.4,2
2018/6/29 6:12,1.8,3,1.8,3,2.5,2
2018/6/29 6:13,1.8,3,1.8,3,2.5,3
2018/6/29 6:14,1.6,3,1.8,3,2,3
2018/6/29 6:15,1.6,3,1.6,3,2.5,3
2018/6/29 6:16,1.5,3,1.6,3,2.5,3
2018/6/29 6:17,1.5,3,1.5,3,2.4,3
2018/6/29 6:18,1.6,3,1.6,3,2.6,4
2018/6/29 6:19,1.6,3,1.6,3,2.1,4
2018/6/29 6:20,1.7,3,1.7,3,2.1,4
2018/6/29 6:21,1.7,3,1.7,3,2.4,4
2018/6/29 6:22,1.7,3,1.7,3,2,3
2018/6/29 6:23,1.7,3,1.7,3,3,3
2018/6/29 6:24,1.9,4,1.9,4,4.4,3
2018/6/29 6:25,1.9,4,1.9,4,3.6,2
2018/6/29 6:26,2,4,2,4,4.2,5
2018/6/29 6:27,2.1,4,2.1,4,3.6,4
2018/6/29 6:28,2.1,4,2.1,4,3.3,5
2018/6/29 6:29,2.1,4,2.1,4,2.2,3
2018/6/29 6:30,2.1,4,2.1,4,2.9,5
2018/6/29 6:31,2.1,4,2.1,4,2.6,3
2018/6/29 6:32,2.3,4,2.3,4,4.4,3
2018/6/29 6:33,2.4,4,2.4,4,4.9,3
2018/6/29 6:34,2.5,4,2.5,4,4.5,3
2018/6/29 6:35,2.5,4,2.5,4,3.3,3
2018/6/29 6:36,2.5,4,2.5,4,3.3,4
2018/6/29 6:37,2.4,4,2.5,4,2.2,4
2018/6/29 6:38,2.3,3,2.3,4,2.9,4
2018/6/29 6:39,2.4,3,2.4,4,3.1,4
2018/6/29 6:40,2.3,3,2.4,4,1.6,2
2018/6/29 6:41,2.3,3,2.3,4,3.2,3
2018/6/29 6:42,2.3,3,2.3,4,3.9,3
2018/6/29 6:43,2.1,3,2.2,4,3.6,3
2018/6/29 6:44,2.2,3,2.2,4,5.4,3
2018/6/29 6:45,2.3,3,2.3,4,5.1,3
2018/6/29 6:46,2.3,3,2.3,4,3.6,4
2018/6/29 6:47,2.4,3,2.4,3,3,3
2018/6/29 6:48,2.4,3,2.4,3,3.3,2
2018/6/29 6:49,2.4,3,2.4,3,3.3,3
2018/6/29 6:50,2.5,3,2.5,3,3.1,1
2018/6/29 6:51,2.5,3,2.5,3,4.3,3
2018/6/29 6:52,2.6,3,2.6,3,4.1,4
2018/6/29 6:53,2.6,3,2.7,3,3.5,3
2018/6/29 6:54,2.5,3,2.6,3,2.9,3
2018/6/29 6:55,2.3,3,2.4,3,3.2,4
2018/6/29 6:56,2.3,3,2.3,3,3,4
2018/6/29 6:57,2.2,3,2.3,3,2.1,6
2018/6/29 6:58,2.2,3,2.2,3,1.9,3
2018/6/29 6:59,2.1,3,2.2,3,3.3,3
2018/6/29 7:00,2.3,3,2.3,3,4.2,4
2018/6/29 7:01,2.2,3,2.3,3,2.7,3
2018/6/29 7:02,2.1,3,2.2,3,3,3
2018/6/29 7:03,2.1,3,2.1,3,2.6,3
2018/6/29 7:04,2.1,3,2.1,3,2.2,3
2018/6/29 7:05,2,3,2,3,2.4,2
2018/6/29 7:06,1.9,3,2,3,2.9,3
2018/6/29 7:07,2.1,3,2.1,3,3.2,3
2018/6/29 7:08,2.1,3,2.1,3,2.7,3
2018/6/29 7:09,2.1,3,2.1,3,2.4,3
2018/6/29 7:10,2,3,2.1,4,2.4,3
2018/6/29 7:11,1.9,3,2,3,3.1,3
2018/6/29 7:12,1.9,3,1.9,3,2.7,3
2018/6/29 7:13,1.9,3,1.9,3,3.3,5
2018/6/29 7:14,2,3,2,3,3.5,5
2018/6/29 7:15,2,3,2,3,3,4
2018/6/29 7:16,2,3,2,3,2.1,2
2018/6/29 7:17,1.9,3,2,3,2.2,4
2018/6/29 7:18,1.8,3,1.9,3,2.9,3
2018/6/29 7:19,1.8,4,1.9,3,2.1,4
2018/6/29 7:20,1.9,4,1.9,3,2.5,5
2018/6/29 7:21,1.9,4,1.9,3,2.6,3
2018/6/29 7:22,1.8,4,1.9,3,2.7,4
2018/6/29 7:23,1.7,4,1.8,3,1.5,1
2018/6/29 7:24,1.6,4,1.7,3,1.9,4
2018/6/29 7:25,1.4,3,1.6,3,1.3,2
2018/6/29 7:26,1.4,3,1.4,3,2.2,3
2018/6/29 7:27,1.4,3,1.4,3,2.5,3
2018/6/29 7:28,1.3,3,1.4,3,1.9,1
2018/6/29 7:29,1.3,3,1.3,4,3,3
2018/6/29 7:30,1.4,3,1.4,4,3.5,3
2018/6/29 7:31,1.3,3,1.4,4,2.9,3
2018/6/29 7:32,1.4,3,1.4,4,2.6,3
2018/6/29 7:33,1.4,3,1.4,4,1.8,4
2018/6/29 7:34,1.3,3,1.4,4,1.3,4
2018/6/29 7:35,1.4,2,1.4,3,2.9,1
2018/6/29 7:36,1.5,2,1.5,2,2.9,1
2018/6/29 7:37,1.5,2,1.5,2,2.7,4
2018/6/29 7:38,1.6,3,1.6,3,3,3
2018/6/29 7:39,1.6,3,1.6,3,2.9,3
2018/6/29 7:40,1.6,3,1.6,3,2.7,3
2018/6/29 7:41,1.7,3,1.7,3,4.4,3
2018/6/29 7:42,1.7,3,1.7,3,3.2,3
2018/6/29 7:43,1.8,3,1.8,3,3,3
2018/6/29 7:44,1.9,3,1.9,3,3.5,5
2018/6/29 7:45,2.1,3,2.1,3,3.9,3
2018/6/29 7:46,2.1,3,2.1,3,3,2
2018/6/29 7:47,2.1,3,2.1,3,3.1,3
2018/6/29 7:48,2.2,3,2.2,3,3.9,4
2018/6/29 7:49,2.4,3,2.4,3,4.7,4
2018/6/29 7:50,2.4,3,2.4,3,3,3
2018/6/29 7:51,2.3,3,2.4,3,3.9,4
2018/6/29 7:52,2.4,3,2.4,3,3.6,3
2018/6/29 7:53,2.4,3,2.4,3,2.9,3
2018/6/29 7:54,2.3,3,2.4,3,3.1,3
2018/6/29 7:55,2.3,3,2.3,3,3.1,3
2018/6/29 7:56,2.3,3,2.3,3,3.9,3
2018/6/29 7:57,2.4,3,2.4,3,3.8,3
2018/6/29 7:58,2.4,3,2.4,3,3.8,2
2018/6/29 7:59,2.2,3,2.3,3,3.8,2
2018/6/29 8:00,2.3,3,2.3,3,4.7,2
2018/6/29 8:01,2.2,3,2.3,3,2.5,5
2018/6/29 8:02,2.1,3,2.2,3,2.4,4
2018/6/29 8:03,2,3,2.1,3,2.6,6
2018/6/29 8:04,2,3,2.1,3,3.3,4
2018/6/29 8:05,2.1,3,2.1,3,3.5,3
2018/6/29 8:06,2.1,3,2.2,3,4.3,3
2018/6/29 8:07,2.1,3,2.1,3,3.5,6
2018/6/29 8:08,2,4,2.1,3,3.6,6
2018/6/29 8:09,2,4,2.1,3,3.1,7
2018/6/29 8:10,2,4,2,3,3.3,6
2018/6/29 8:11,1.9,4,2,3,2,5
2018/6/29 8:12,2,4,2,3,4.5,6
2018/6/29 8:13,2.3,4,2.3,4,5.1,5
2018/6/29 8:14,2.3,4,2.3,4,3.9,5
2018/6/29 8:15,2.2,5,2.3,4,2.9,5
2018/6/29 8:16,2.1,5,2.2,4,3,3
2018/6/29 8:17,2.1,5,2.2,4,3.5,3
2018/6/29 8:18,2.2,4,2.2,4,5,4
2018/6/29 8:19,2.3,4,2.3,4,4.8,5
2018/6/29 8:20,2.5,4,2.5,4,5.4,5
2018/6/29 8:21,2.7,4,2.7,4,4.5,4
2018/6/29 8:22,2.7,4,2.7,4,3.6,5
2018/6/29 8:23,2.5,4,2.7,4,3.9,4
2018/6/29 8:24,2.4,4,2.5,4,2.5,3
2018/6/29 8:25,2.6,4,2.6,4,4.4,4
2018/6/29 8:26,2.6,4,2.6,4,3.2,4
2018/6/29 8:27,2.6,4,2.6,4,3,5
2018/6/29 8:28,2.6,4,2.6,4,3.5,5
2018/6/29 8:29,2.5,4,2.6,4,4.9,3
2018/6/29 8:30,2.6,4,2.6,4,5.7,3
2018/6/29 8:31,2.6,4,2.6,4,5,3
2018/6/29 8:32,2.6,4,2.6,4,4.7,3
2018/6/29 8:33,2.6,4,2.6,4,4.2,3
2018/6/29 8:34,2.8,4,2.8,4,3.2,4
2018/6/29 8:35,2.7,4,2.7,4,3.6,3
2018/6/29 8:36,2.7,4,2.7,4,4.4,5
2018/6/29 8:37,2.9,4,2.9,4,4.9,3
2018/6/29 8:38,3,4,3,4,5.5,3
2018/6/29 8:39,3,4,3.1,4,3.9,4
2018/6/29 8:40,2.8,4,3,4,3.2,4
2018/6/29 8:41,2.7,4,2.7,4,3.8,4
2018/6/29 8:42,2.6,4,2.7,4,4.7,3
2018/6/29 8:43,2.6,4,2.6,4,3.5,3
2018/6/29 8:44,2.6,4,2.6,4,3.9,5
2018/6/29 8:45,2.7,4,2.7,4,4.8,3
2018/6/29 8:46,2.7,4,2.7,4,5.1,3
2018/6/29 8:47,2.8,4,2.8,4,5.4,3
2018/6/29 8:48,2.7,4,2.8,4,4.7,4
2018/6/29 8:49,2.6,4,2.7,4,3.1,5
2018/6/29 8:50,2.7,4,2.7,4,4.2,3
2018/6/29 8:51,2.8,4,2.8,4,5.8,4
2018/6/29 8:52,2.8,4,2.9,4,3.8,3
2018/6/29 8:53,2.8,4,2.8,4,3.3,4
2018/6/29 8:54,2.7,4,2.8,4,2.5,5
2018/6/29 8:55,2.6,4,2.7,4,3.3,3
2018/6/29 8:56,2.6,4,2.6,4,4.4,3
2018/6/29 8:57,2.4,4,2.6,4,3.3,3
2018/6/29 8:58,2.3,4,2.4,4,3,6
2018/6/29 8:59,2.3,4,2.4,4,2.5,4
2018/6/29 9:00,2.2,4,2.3,4,2.9,3
2018/6/29 9:01,2.1,4,2.3,4,3,4
2018/6/29 9:02,2.1,4,2.1,4,2.7,4
2018/6/29 9:03,2,4,2,4,2.5,4
2018/6/29 9:04,2.1,4,2.1,4,4.9,5
2018/6/29 9:05,2.1,4,2.2,4,3.3,5
2018/6/29 9:06,2,4,2.1,4,3,4
2018/6/29 9:07,2,4,2,4,3.9,4
2018/6/29 9:08,2,4,2,4,2.9,5
2018/6/29 9:09,2,4,2,4,3,5
2018/6/29 9:10,2.1,4,2.1,4,3.7,4
2018/6/29 9:11,2.2,4,2.2,4,4.2,5
2018/6/29 9:12,2.1,4,2.2,4,2.5,5
2018/6/29 9:13,2.1,4,2.2,4,2.7,5
2018/6/29 9:14,2.1,4,2.2,4,4.1,4
2018/6/29 9:15,2.2,4,2.2,4,5.7,4
2018/6/29 9:16,2.3,4,2.3,4,5.2,4
2018/6/29 9:17,2.4,4,2.4,4,4.5,3
2018/6/29 9:18,2.6,4,2.6,4,5.2,4
2018/6/29 9:19,2.8,4,2.8,4,5,5
2018/6/29 9:20,2.8,4,2.9,4,4.9,5
2018/6/29 9:21,2.8,4,2.8,4,3.8,4
2018/6/29 9:22,2.9,4,2.9,4,5,5
2018/6/29 9:23,3.1,5,3.1,5,4.8,6
2018/6/29 9:24,3.2,5,3.2,5,4.3,6
2018/6/29 9:25,3.2,5,3.2,5,3.9,6
2018/6/29 9:26,3,5,3.2,5,2.7,5
2018/6/29 9:27,3,5,3,5,3.3,5
2018/6/29 9:28,2.9,5,3,5,4.4,5
2018/6/29 9:29,2.9,5,2.9,5,4.7,6
2018/6/29 9:30,2.9,5,2.9,5,4.1,5
2018/6/29 9:31,3,5,3,5,4.1,5
2018/6/29 9:32,2.9,5,3,5,3.8,4
2018/6/29 9:33,2.7,5,2.9,5,2.2,4
2018/6/29 9:34,2.6,5,2.7,5,3,5
2018/6/29 9:35,2.5,5,2.6,5,2.5,3
2018/6/29 9:36,2.5,4,2.5,5,1.9,4
2018/6/29 9:37,2.4,4,2.5,5,2.5,3
2018/6/29 9:38,2.3,4,2.4,5,3.5,3
2018/6/29 9:39,2.1,4,2.3,5,2.9,3
2018/6/29 9:40,2,4,2.1,5,2.2,2
2018/6/29 9:41,1.8,3,1.9,5,2.7,3
2018/6/29 9:42,1.7,3,1.8,5,2.5,3
2018/6/29 9:43,1.7,3,1.7,5,2.5,4
2018/6/29 9:44,1.7,3,1.7,5,2.7,4
2018/6/29 9:45,1.7,3,1.7,5,2.7,3
2018/6/29 9:46,1.8,3,1.8,4,3.6,2
2018/6/29 9:47,1.8,3,1.8,4,2.9,2
2018/6/29 9:48,1.7,3,1.8,4,2.9,3
2018/6/29 9:49,1.7,3,1.7,4,2.6,3
2018/6/29 9:50,1.8,3,1.8,4,2.7,3
2018/6/29 9:51,1.7,3,1.8,3,2.2,4
2018/6/29 9:52,1.8,3,1.8,3,3.7,4
2018/6/29 9:53,1.9,3,1.9,3,3,5
2018/6/29 9:54,1.9,3,1.9,3,3.8,5
2018/6/29 9:55,2.1,4,2.1,4,5.4,3
2018/6/29 9:56,2.1,4,2.1,4,4.2,5
2018/6/29 9:57,2.2,4,2.2,4,3.8,7
2018/6/29 9:58,2.4,4,2.4,4,4.3,6
2018/6/29 9:59,2.5,4,2.5,4,4.4,6
2018/6/29 10:00,2.7,5,2.7,5,5.5,5
2018/6/29 10:01,2.8,5,2.8,5,4.7,5
2018/6/29 10:02,2.9,5,2.9,5,4.7,4
2018/6/29 10:03,3,5,3,5,3.6,4
2018/6/29 10:04,3,5,3,5,4.4,5
2018/6/29 10:05,3,5,3.1,5,4.7,5
2018/6/29 10:06,2.9,5,3,5,2.7,4
2018/6/29 10:07,2.9,5,2.9,5,4.2,2
2018/6/29 10:08,2.9,4,3,5,4.2,3
2018/6/29 10:09,2.9,4,3,5,3.6,4
2018/6/29 10:10,2.8,4,2.9,5,3.5,3
2018/6/29 10:11,2.7,4,2.8,5,2.4,3
2018/6/29 10:12,2.6,3,2.7,5,2.9,2
2018/6/29 10:13,2.6,3,2.6,5,3.7,2
2018/6/29 10:14,2.4,3,2.6,5,2.6,3
2018/6/29 10:15,2.3,3,2.4,5,3.5,1
2018/6/29 10:16,2.3,3,2.3,4,2.7,2
2018/6/29 10:17,2.1,2,2.3,4,2.7,3
2018/6/29 10:18,1.9,2,2.1,4,2.7,2
2018/6/29 10:19,1.8,2,1.9,4,2.4,2
2018/6/29 10:20,1.6,2,1.7,4,2.2,4
2018/6/29 10:21,1.6,2,1.6,4,2.4,2
2018/6/29 10:22,1.5,2,1.6,3,1.6,3
2018/6/29 10:23,1.4,2,1.4,3,2.1,4
2018/6/29 10:24,1.3,2,1.4,3,2,2
2018/6/29 10:25,1.3,2,1.4,3,2.2,2
2018/6/29 10:26,1.3,2,1.3,3,1.4,2
2018/6/29 10:27,1.1,2,1.2,2,0.9,2
2018/6/29 10:28,1.1,2,1.1,2,1.3,1
2018/6/29 10:29,1,2,1.1,2,0.5,5
2018/6/29 10:30,0.8,2,1,2,0.3,5
2018/6/29 10:31,0.8,2,0.8,2,0.9,16
2018/6/29 10:32,0.8,2,0.8,2,1.3,2
2018/6/29 10:33,0.7,2,0.8,2,1.9,2
2018/6/29 10:34,0.7,2,0.7,2,1.8,3
2018/6/29 10:35,0.7,2,0.7,2,2.4,3
2018/6/29 10:36,0.9,2,0.9,2,2.9,3
2018/6/29 10:37,1.1,2,1.1,2,3.1,3
2018/6/29 10:38,1.3,3,1.3,3,3.8,3
2018/6/29 10:39,1.5,3,1.5,3,4.4,2
2018/6/29 10:40,1.7,2,1.7,2,4.2,3
2018/6/29 10:41,1.8,3,1.8,3,2.6,3
2018/6/29 10:42,1.8,3,1.8,3,2.6,1
2018/6/29 10:43,1.9,3,1.9,3,2.5,2
2018/6/29 10:44,1.9,2,1.9,3,1.6,2
2018/6/29 10:45,1.8,2,1.9,3,2.2,3
2018/6/29 10:46,1.8,2,1.8,3,2.9,1
2018/6/29 10:47,1.7,2,1.8,3,2.7,3
2018/6/29 10:48,1.6,2,1.7,3,3,2
2018/6/29 10:49,1.5,2,1.5,3,2.6,2
2018/6/29 10:50,1.4,2,1.5,3,1.8,1
2018/6/29 10:51,1.4,2,1.4,3,2.7,3
2018/6/29 10:52,1.4,2,1.4,3,2.6,2
2018/6/29 10:53,1.4,2,1.4,3,2.6,2
2018/6/29 10:54,1.5,2,1.5,2,2.4,2
2018/6/29 10:55,1.5,2,1.5,2,2.7,3
2018/6/29 10:56,1.6,2,1.6,2,2.7,3
2018/6/29 10:57,1.5,2,1.6,2,2.1,16
2018/6/29 10:58,1.4,2,1.5,2,1.9,1
2018/6/29 10:59,1.4,2,1.5,2,2.2,3
2018/6/29 11:00,1.6,2,1.6,2,2.1,3
2018/6/29 11:01,1.6,3,1.6,2,2.6,4
2018/6/29 11:02,1.6,3,1.6,2,1.8,5
2018/6/29 11:03,1.6,3,1.6,2,2.5,6
2018/6/29 11:04,1.6,4,1.6,2,2.5,5
2018/6/29 11:05,1.6,4,1.6,2,2.2,4
2018/6/29 11:06,1.5,4,1.6,2,2.9,6
2018/6/29 11:07,1.6,4,1.6,2,3.7,5
2018/6/29 11:08,1.8,5,1.8,5,3.5,5
2018/6/29 11:09,2,5,2,5,3.9,5
2018/6/29 11:10,2.1,5,2.1,5,4.4,5
2018/6/29 11:11,2.2,5,2.2,5,4.1,5
2018/6/29 11:12,2.4,5,2.4,5,4.3,3
2018/6/29 11:13,2.5,4,2.5,5,3.9,3
2018/6/29 11:14,2.6,4,2.6,4,3.6,3
2018/6/29 11:15,2.7,4,2.7,4,2.7,5
2018/6/29 11:16,2.6,4,2.7,4,3,4
2018/6/29 11:17,2.6,4,2.7,4,3.5,3
2018/6/29 11:18,2.6,4,2.6,4,3.9,4
2018/6/29 11:19,2.6,4,2.6,4,3.9,5
2018/6/29 11:20,2.5,4,2.6,4,3.3,3
2018/6/29 11:21,2.4,4,2.5,4,3.5,3
2018/6/29 11:22,2.3,4,2.4,4,3.2,4
2018/6/29 11:23,2.3,4,2.3,4,4.5,3
2018/6/29 11:24,2.3,4,2.4,4,4.1,4
2018/6/29 11:25,2.4,4,2.4,4,3.9,5
2018/6/29 11:26,2.5,4,2.5,4,3.2,5
2018/6/29 11:27,2.5,4,2.5,4,3.1,3
2018/6/29 11:28,2.4,4,2.5,4,2.5,4
2018/6/29 11:29,2.3,4,2.4,4,2.4,5
2018/6/29 11:30,2.2,4,2.3,4,2.6,5
2018/6/29 11:31,2.2,4,2.2,4,2.1,5
2018/6/29 11:32,2.1,5,2.2,4,2.6,6
2018/6/29 11:33,2.1,5,2.1,4,4.1,6
2018/6/29 11:34,2.1,5,2.1,4,4.3,7
2018/6/29 11:35,2.1,5,2.1,4,4.1,6
2018/6/29 11:36,2.2,5,2.2,4,4.4,4
2018/6/29 11:37,2.4,5,2.4,4,6,5
2018/6/29 11:38,2.5,5,2.5,5,4.3,5
2018/6/29 11:39,2.7,5,2.7,5,5.1,4
2018/6/29 11:40,2.9,5,2.9,5,5.1,5
2018/6/29 11:41,3,5,3,5,4.7,4
2018/6/29 11:42,3.1,5,3.1,5,4.7,5
2018/6/29 11:43,3.2,5,3.2,5,4.9,4
2018/6/29 11:44,3.2,5,3.2,5,5.2,4
2018/6/29 11:45,3.1,5,3.2,5,3.8,4
2018/6/29 11:46,3.2,5,3.2,5,6.3,3
2018/6/29 11:47,3.3,5,3.3,5,6.4,4
2018/6/29 11:48,3.3,4,3.3,5,6,3